TimeEST,TemperatureF,Dew PointF,Humidity,Sea Level PressureIn,VisibilityMPH,Wind Direction,Wind SpeedMPH,Gust SpeedMPH,PrecipitationIn,Events,Conditions,WindDirDegrees,DateUTC
12:51 AM,50.0,46.0,86,29.95,10.0,South,11.5,-,N/A,,Partly Cloudy,180,2013-01-12 05:51:00
1:51 AM,53.1,46.9,80,29.94,10.0,South,10.4,-,N/A,,Clear,190,2013-01-12 06:51:00
2:51 AM,52.0,46.9,83,29.97,10.0,South,11.5,-,N/A,,Clear,190,2013-01-12 07:51:00
3:51 AM,51.8,46.4,82,29.96,10.0,South,10.4,-,N/A,,Scattered Clouds,180,2013-01-12 08:51:00
4:51 AM,52.0,46.9,83,29.97,10.0,South,9.2,-,N/A,,Scattered Clouds,180,2013-01-12 09:51:00
5:51 AM,51.1,48.0,89,29.97,10.0,South,9.2,-,N/A,,Mostly Cloudy,190,2013-01-12 10:51:00
6:51 AM,51.1,48.9,92,29.97,10.0,South,12.7,-,N/A,,Mostly Cloudy,180,2013-01-12 11:51:00
7:51 AM,51.1,48.9,92,29.99,10.0,South,11.5,-,N/A,,Mostly Cloudy,180,2013-01-12 12:51:00
8:51 AM,52.0,50.0,93,30.00,10.0,South,11.5,-,N/A,,Mostly Cloudy,180,2013-01-12 13:51:00
9:51 AM,54.0,51.1,90,30.02,10.0,SSW,12.7,-,N/A,,Mostly Cloudy,200,2013-01-12 14:51:00
10:51 AM,55.9,52.0,87,30.03,10.0,SSW,11.5,-,N/A,,Overcast,200,2013-01-12 15:51:00
11:51 AM,59.0,53.1,81,30.02,10.0,SSW,9.2,-,N/A,,Overcast,200,2013-01-12 16:51:00
12:51 PM,59.0,53.1,81,29.99,10.0,SSW,11.5,-,N/A,,Overcast,200,2013-01-12 17:51:00
1:51 PM,60.1,52.0,75,29.97,10.0,South,12.7,19.6,N/A,,Overcast,180,2013-01-12 18:51:00
2:51 PM,60.1,53.1,78,29.99,10.0,South,11.5,20.7,N/A,,Mostly Cloudy,190,2013-01-12 19:51:00
3:51 PM,61.0,53.1,75,30.01,10.0,SSW,10.4,-,N/A,,Mostly Cloudy,200,2013-01-12 20:51:00
4:51 PM,59.0,52.0,78,30.01,10.0,SSW,6.9,-,N/A,,Overcast,210,2013-01-12 21:51:00
5:51 PM,55.0,51.1,86,29.99,10.0,South,4.6,-,N/A,,Mostly Cloudy,180,2013-01-12 22:51:00
6:51 PM,55.0,52.0,89,30.00,10.0,Calm,Calm,-,N/A,,Mostly Cloudy,0,2013-01-12 23:51:00
7:51 PM,52.0,50.0,93,29.98,9.0,SE,4.6,-,N/A,,Mostly Cloudy,140,2013-01-13 00:51:00
8:15 PM,53.6,51.8,94,29.97,9.0,SSE,5.8,-,N/A,,Mostly Cloudy,150,2013-01-13 01:15:00
8:51 PM,55.0,53.1,93,29.96,9.0,SSE,6.9,-,N/A,,Overcast,150,2013-01-13 01:51:00
9:19 PM,57.2,53.6,88,29.93,10.0,SSE,9.2,-,N/A,,Overcast,150,2013-01-13 02:19:00
9:51 PM,57.0,54.0,89,29.93,10.0,SSE,8.1,-,N/A,,Overcast,160,2013-01-13 02:51:00
10:51 PM,57.0,55.0,93,29.90,10.0,SE,5.8,-,N/A,,Overcast,140,2013-01-13 03:51:00
11:51 PM,57.9,55.9,93,29.87,10.0,South,8.1,-,0.00,Rain,Light Rain,170,2013-01-13 04:51:00